EW5967 Weather Reports


Display with metric or nautical units.
time (UTC)temp
F
wind
direction
speed
MPH
gust
MPH
rain 1hr
in
rain 24hr
in
rain mn
in
humidity
%
barometer
mb
20260505225045 68 106 2.0 9.0 0.00 0.00 0.00 24 1006.1
20260505224545 67 153 0.0 7.0 0.00 0.00 0.00 25 1006.3
20260505224045 68 155 2.0 7.0 0.00 0.00 0.00 24 1006.3
20260505223544 68 134 2.0 12.0 0.00 0.00 0.00 25 1006.3
20260505223051 68 104 5.0 12.0 0.00 0.00 0.00 25 1006.3
20260505222543 68 79 1.0 7.0 0.00 0.00 0.00 25 1006.3
20260505222043 68 59 4.0 10.0 0.00 0.00 0.00 25 1006.4
20260505221546 68 48 3.0 10.0 0.00 0.00 0.00 25 1006.4
20260505221143 68 124 4.0 9.0 0.00 0.00 0.00 24 1006.5
20260505220546 68 138 2.0 9.0 0.00 0.00 0.00 25 1006.5
20260505220042 68 111 3.0 9.0 0.00 0.00 0.00 25 1006.6
20260505215538 68 57 1.0 13.0 0.00 0.00 0.00 25 1006.6
20260505215037 67 71 6.0 13.0 0.00 0.00 0.00 26 1006.6
20260505214547 66 123 0.0 8.0 0.00 0.00 0.00 27 1006.6
20260505214036 67 91 3.0 8.0 0.00 0.00 0.00 26 1006.7
20260505213536 67 86 1.0 7.0 0.00 0.00 0.00 27 1006.7
20260505213036 67 167 0.0 9.0 0.00 0.00 0.00 27 1006.8
20260505212535 67 182 0.0 9.0 0.00 0.00 0.00 27 1006.9
20260505212034 67 80 1.0 8.0 0.00 0.00 0.00 27 1006.9
20260505211534 67 117 1.0 8.0 0.00 0.00 0.00 27 1006.9
20260505211036 67 83 3.0 8.0 0.00 0.00 0.00 27 1007.1
20260505210533 67 89 1.0 7.0 0.00 0.00 0.00 27 1007.1
20260505210033 67 67 2.0 12.0 0.00 0.00 0.00 28 1007.1
20260505205533 66 137 4.0 14.0 0.00 0.00 0.00 28 1007.1
20260505205032 67 146 4.0 14.0 0.00 0.00 0.00 28 1007.0
20260505204535 67 86 5.0 10.0 0.00 0.00 0.00 28 1007.0
20260505204030 67 123 4.0 9.0 0.00 0.00 0.00 28 1007.1
20260505203529 67 171 3.0 9.0 0.00 0.00 0.00 28 1007.1
20260505203032 67 142 2.0 8.0 0.00 0.00 0.00 28 1007.1
20260505202529 66 229 2.0 9.0 0.00 0.00 0.00 29 1007.1
20260505202030 67 157 3.0 9.0 0.00 0.00 0.00 28 1007.1
20260505201528 67 84 3.0 10.0 0.00 0.00 0.00 28 1007.1
20260505201028 66 100 3.0 10.0 0.00 0.00 0.00 29 1007.0
20260505200528 66 136 4.0 10.0 0.00 0.00 0.00 30 1007.1
20260505200038 66 49 3.0 9.0 0.00 0.00 0.00 30 1007.1
20260505195530 65 90 0.0 9.0 0.00 0.00 0.00 30 1007.1
20260505195026 65 66 2.0 11.0 0.00 0.00 0.00 29 1007.3
20260505194526 65 171 1.0 11.0 0.00 0.00 0.00 30 1007.3
20260505194026 66 98 4.0 11.0 0.00 0.00 0.00 30 1007.4
20260505193525 65 136 1.0 10.0 0.00 0.00 0.00 31 1007.3
20260505193023 64 123 3.0 11.0 0.00 0.00 0.00 30 1007.5
20260505192528 65 155 5.0 12.0 0.00 0.00 0.00 31 1007.4
20260505192024 65 129 4.0 11.0 0.00 0.00 0.00 30 1007.5
20260505191524 65 159 4.0 11.0 0.00 0.00 0.00 30 1007.4
20260505191023 66 125 3.0 14.0 0.00 0.00 0.00 31 1007.4
20260505190523 66 150 3.0 14.0 0.00 0.00 0.00 30 1007.5
20260505190029 66 34 6.0 14.0 0.00 0.00 0.00 30 1007.5
20260505185524 65 157 0.0 10.0 0.00 0.00 0.00 31 1007.3
20260505185022 66 138 2.0 10.0 0.00 0.00 0.00 30 1007.5
20260505184524 66 69 3.0 8.0 0.00 0.00 0.00 30 1007.5
20260505184022 66 166 1.0 6.0 0.00 0.00 0.00 31 1007.6
20260505183520 65 246 1.0 7.0 0.00 0.00 0.00 31 1007.5
20260505183020 65 132 3.0 8.0 0.00 0.00 0.00 31 1007.5
20260505182519 65 91 1.0 8.0 0.00 0.00 0.00 32 1007.5
20260505182019 65 75 2.0 6.0 0.00 0.00 0.00 32 1007.6
20260505181520 64 80 1.0 4.0 0.00 0.00 0.00 32 1007.5
20260505181018 64 63 1.0 9.0 0.00 0.00 0.00 32 1007.6
20260505180516 64 155 3.0 9.0 0.00 0.00 0.00 32 1007.6
20260505180017 64 140 1.0 7.0 0.00 0.00 0.00 32 1007.6
20260505175516 64 155 1.0 9.0 0.00 0.00 0.00 33 1007.6
20260505175020 63 132 2.0 5.0 0.00 0.00 0.00 34 1007.6
20260505174515 63 53 2.0 8.0 0.00 0.00 0.00 33 1007.6
20260505174018 63 98 2.0 11.0 0.00 0.00 0.00 32 1007.6
20260505173514 63 146 2.0 11.0 0.00 0.00 0.00 33 1007.6
20260505173014 62 157 1.0 7.0 0.00 0.00 0.00 34 1007.6
20260505172514 63 98 1.0 8.0 0.00 0.00 0.00 34 1007.7
20260505172016 63 133 2.0 7.0 0.00 0.00 0.00 35 1007.6
20260505171518 61 101 0.0 11.0 0.00 0.00 0.00 36 1007.6
20260505171013 61 129 5.0 11.0 0.00 0.00 0.00 36 1007.6
20260505170512 62 128 0.0 7.0 0.00 0.00 0.00 37 1007.6
20260505170016 61 119 1.0 8.0 0.00 0.00 0.00 38 1007.6
20260505165510 60 125 1.0 9.0 0.00 0.00 0.00 38 1007.6
20260505165013 61 90 2.0 5.0 0.00 0.00 0.00 38 1007.7
20260505164509 60 38 2.0 6.0 0.00 0.00 0.00 39 1007.7
20260505164008 60 102 2.0 6.0 0.00 0.00 0.00 40 1007.7
20260505163509 60 44 2.0 6.0 0.00 0.00 0.00 40 1007.7
20260505163009 59 113 2.0 6.0 0.00 0.00 0.00 41 1007.6
20260505162507 59 81 2.0 8.0 0.00 0.00 0.00 42 1007.6
20260505162007 59 11 4.0 8.0 0.00 0.00 0.00 43 1007.6
20260505161507 58 22 2.0 5.0 0.00 0.00 0.00 43 1007.6
20260505161006 58 34 1.0 5.0 0.00 0.00 0.00 42 1007.7
20260505160507 58 51 1.0 5.0 0.00 0.00 0.00 43 1007.7
20260505153004 56 15 2.0 10.0 0.00 0.00 0.00 47 1007.6
20260505152504 56 5 6.0 10.0 0.00 0.00 0.00 46 1007.6
20260505152008 56 22 3.0 11.0 0.00 0.00 0.00 47 1007.6
20260505151504 55 40 5.0 11.0 0.00 0.00 0.00 48 1007.6
20260505151003 55 24 2.0 9.0 0.00 0.00 0.00 48 1007.5
20260505150502 56 58 3.0 8.0 0.00 0.00 0.00 47 1007.3
20260505140556 54 25 6.0 11.0 0.00 0.00 0.00 50 1007.0
20260505130106 52 17 0.0 4.0 0.00 0.00 0.00 50 1006.4
20260505124552 52 17 0.0 0.0 0.00 0.00 0.00 51 1006.2
20260505124044 52 17 0.0 0.0 0.00 0.00 0.00 51 1006.1
20260505123545 52 17 0.0 1.0 0.00 0.00 0.00 50 1006.1
20260505123046 52 17 0.0 1.0 0.00 0.00 0.00 50 1006.1
20260505122543 52 17 0.0 1.0 0.00 0.00 0.00 50 1006.1
20260505122042 52 17 0.0 3.0 0.00 0.00 0.00 49 1006.1
20260505121544 52 18 0.0 3.0 0.00 0.00 0.00 49 1006.1
20260505121041 52 18 0.0 4.0 0.00 0.00 0.00 49 1006.0
20260505120542 52 18 1.0 4.0 0.00 0.00 0.00 49 1005.9
20260505120040 52 225 0.0 3.0 0.00 0.00 0.00 49 1006.0
20260505115539 52 225 0.0 3.0 0.00 0.00 0.00 49 1005.9
20260505115041 52 225 0.0 3.0 0.00 0.00 0.00 48 1005.9
20260505114538 52 225 0.0 3.0 0.00 0.00 0.00 48 1005.9
20260505114037 52 225 0.0 3.0 0.00 0.00 0.00 48 1005.9
20260505113538 53 223 0.0 3.0 0.00 0.00 0.00 47 1006.0
20260505113036 53 222 0.0 2.0 0.00 0.00 0.00 47 1005.9
20260505112538 53 222 0.0 1.0 0.00 0.00 0.00 47 1005.8
20260505112033 53 222 0.0 1.0 0.00 0.00 0.00 47 1005.7
20260505111538 53 222 0.0 2.0 0.00 0.00 0.00 47 1005.7
20260505111034 53 222 0.0 3.0 0.00 0.00 0.00 47 1005.7
20260505110533 53 222 0.0 3.0 0.00 0.00 0.00 47 1005.7
20260505110123 53 222 0.0 2.0 0.00 0.00 0.00 47 1005.7
20260505102026 55 224 0.0 2.0 0.00 0.00 0.00 43 1005.5
20260505101526 55 224 0.0 1.0 0.00 0.00 0.00 43 1005.5
20260505101025 55 224 0.0 1.0 0.00 0.00 0.00 42 1005.6
20260505100526 55 224 0.0 1.0 0.00 0.00 0.00 42 1005.6
20260505100028 55 224 0.0 2.0 0.00 0.00 0.00 42 1005.5
20260505095523 55 224 0.0 2.0 0.00 0.00 0.00 42 1005.4
20260505095121 55 224 0.0 2.0 0.00 0.00 0.00 41 1005.5
20260505094521 55 224 0.0 3.0 0.00 0.00 0.00 41 1005.3
20260505094021 56 224 0.0 3.0 0.00 0.00 0.00 41 1005.4
20260505093519 56 224 0.0 3.0 0.00 0.00 0.00 41 1005.4
20260505093019 56 225 0.0 2.0 0.00 0.00 0.00 40 1005.3
20260505092520 56 225 0.0 3.0 0.00 0.00 0.00 40 1005.3
20260505092018 56 225 0.0 4.0 0.00 0.00 0.00 41 1005.2
20260505091517 56 224 1.0 6.0 0.00 0.00 0.00 41 1005.3
20260505091019 57 236 1.0 7.0 0.00 0.00 0.00 40 1005.3
20260505090516 57 231 3.0 9.0 0.00 0.00 0.00 40 1005.4
20260505090014 57 220 2.0 9.0 0.00 0.00 0.00 40 1005.5
20260505085513 57 225 3.0 8.0 0.00 0.00 0.00 39 1005.5
20260505085013 57 223 3.0 8.0 0.00 0.00 0.00 39 1005.5
20260505084517 57 223 3.0 8.0 0.00 0.00 0.00 39 1005.4
20260505084011 58 217 3.0 8.0 0.00 0.00 0.00 39 1005.5
20260505083510 58 215 4.0 8.0 0.00 0.00 0.00 38 1005.5
20260505083014 58 211 2.0 5.0 0.00 0.00 0.00 38 1005.5
20260505082510 58 215 1.0 5.0 0.00 0.00 0.00 37 1005.5
20260505082015 58 211 1.0 5.0 0.00 0.00 0.00 37 1005.6
20260505081510 58 188 0.0 3.0 0.00 0.00 0.00 38 1005.7
20260505081009 58 187 0.0 4.0 0.00 0.00 0.00 37 1005.7
20260505080508 58 187 1.0 5.0 0.00 0.00 0.00 37 1005.6
20260505080006 59 190 1.0 4.0 0.00 0.00 0.00 36 1005.7
20260505075504 59 231 0.0 7.0 0.00 0.00 0.00 34 1005.7
20260505075007 60 232 1.0 9.0 0.00 0.00 0.00 34 1005.6
20260505074504 60 230 3.0 10.0 0.00 0.00 0.00 34 1005.5
20260505074003 60 253 3.0 10.0 0.00 0.00 0.00 34 1005.4
20260505073503 60 236 4.0 9.0 0.00 0.00 0.00 34 1005.4
20260505073003 60 233 4.0 8.0 0.00 0.00 0.00 35 1005.3
20260505072502 59 237 3.0 8.0 0.00 0.00 0.00 35 1005.4
20260505072100 59 234 4.0 9.0 0.00 0.00 0.00 35 1005.4
20260505071619 59 242 3.0 8.0 0.00 0.00 0.00 36 1005.3
20260505071059 59 239 3.0 10.0 0.00 0.00 0.00 36 1005.5
20260505070601 59 234 3.0 8.0 0.00 0.00 0.00 36 1005.4
20260505070111 59 276 3.0 10.0 0.00 0.00 0.00 36 1005.4
20260505065557 59 243 2.0 10.0 0.00 0.00 0.00 37 1005.3
20260505065057 59 240 4.0 11.0 0.00 0.00 0.00 37 1005.4
20260505064559 59 247 3.0 10.0 0.00 0.00 0.00 37 1005.4
20260505064101 59 235 4.0 10.0 0.00 0.00 0.00 37 1005.4
20260505063557 59 221 5.0 10.0 0.00 0.00 0.00 37 1005.4
20260505063056 59 229 5.0 10.0 0.00 0.00 0.00 36 1005.5
20260505062557 59 240 4.0 11.0 0.00 0.00 0.00 36 1005.3
20260505062059 59 239 5.0 11.0 0.00 0.00 0.00 36 1005.3
20260505061559 60 248 5.0 11.0 0.00 0.00 0.00 36 1005.3
20260505061058 60 244 4.0 11.0 0.00 0.00 0.00 36 1005.2
20260505060555 60 242 4.0 14.0 0.00 0.00 0.00 35 1005.3
20260505060055 60 224 5.0 14.0 0.00 0.00 0.00 35 1005.4
20260505055554 60 206 6.0 14.0 0.00 0.00 0.00 35 1005.4
20260505055054 60 225 4.0 11.0 0.00 0.00 0.00 34 1005.4
20260505054557 60 233 4.0 14.0 0.00 0.00 0.00 34 1005.3
20260505054057 60 214 6.0 14.0 0.00 0.00 0.00 34 1005.4
20260505053553 61 230 6.0 12.0 0.00 0.00 0.00 34 1005.3
20260505053102 61 241 5.0 12.0 0.00 0.00 0.00 34 1005.2
20260505052654 61 214 5.0 10.0 0.00 0.00 0.00 33 1005.3
20260505052056 61 273 4.0 11.0 0.00 0.00 0.00 33 1005.3
20260505051553 61 250 5.0 10.0 0.00 0.00 0.00 33 1005.3
20260505051053 61 232 4.0 10.0 0.00 0.00 0.00 33 1005.3
20260505050654 61 237 3.0 12.0 0.00 0.00 0.00 33 1005.4
20260505041552 62 218 5.0 13.0 0.00 0.00 0.00 30 1004.8
20260505041047 63 237 5.0 13.0 0.00 0.00 0.00 30 1004.7
20260505040547 63 205 5.0 13.0 0.00 0.00 0.00 30 1004.6
20260505040050 63 221 6.0 17.0 0.00 0.00 0.00 29 1004.5
20260505035547 63 217 6.0 15.0 0.00 0.00 0.00 29 1004.4
20260505035046 63 203 6.0 14.0 0.00 0.00 0.00 29 1004.3
20260505034545 63 213 4.0 11.0 0.00 0.00 0.00 28 1004.1
20260505034045 63 229 5.0 11.0 0.00 0.00 0.00 27 1004.0
20260505033545 64 246 3.0 15.0 0.00 0.00 0.00 27 1003.9
20260505033048 64 184 7.0 15.0 0.00 0.00 0.00 27 1003.8
20260505032546 64 211 3.0 10.0 0.00 0.00 0.00 26 1003.8
20260505032045 64 211 4.0 13.0 0.00 0.00 0.00 26 1003.6
20260505031545 64 262 5.0 11.0 0.00 0.00 0.00 25 1003.5
20260505031045 64 210 3.0 11.0 0.00 0.00 0.00 25 1003.5
20260505030545 64 210 5.0 14.0 0.00 0.00 0.00 24 1003.4
20260505030045 65 213 6.0 14.0 0.00 0.00 0.00 24 1003.3
20260505025546 65 229 5.0 12.0 0.00 0.00 0.00 24 1003.2
20260505025044 65 226 3.0 12.0 0.00 0.00 0.00 23 1003.2
20260505024546 65 234 4.0 21.0 0.00 0.00 0.00 23 1003.0
20260505024045 65 214 7.0 21.0 0.00 0.00 0.00 23 1002.9
20260505023544 65 214 3.0 16.0 0.00 0.00 0.00 22 1002.9
20260505023050 65 258 7.0 16.0 0.00 0.00 0.00 22 1002.8
20260505022544 65 240 5.0 15.0 0.00 0.00 0.00 22 1002.9
20260505022044 66 208 5.0 12.0 0.00 0.00 0.00 22 1002.8
20260505021543 66 219 4.0 12.0 0.00 0.00 0.00 22 1002.9
20260505021044 66 254 3.0 15.0 0.00 0.00 0.00 22 1002.9
20260505020543 66 244 5.0 16.0 0.00 0.00 0.00 21 1002.9
20260505020043 66 195 8.0 15.0 0.00 0.00 0.00 21 1002.7
20260505015543 67 250 6.0 13.0 0.00 0.00 0.00 21 1002.8
20260505015043 67 215 4.0 11.0 0.00 0.00 0.00 21 1002.8
20260505014543 67 238 4.0 17.0 0.00 0.00 0.00 21 1002.8
20260505014045 67 202 6.0 14.0 0.00 0.00 0.00 20 1002.9
20260505013542 67 220 5.0 16.0 0.00 0.00 0.00 20 1002.7
20260505013042 68 225 7.0 17.0 0.00 0.00 0.00 21 1002.8
20260505012542 68 201 4.0 17.0 0.00 0.00 0.00 20 1002.8
20260505012043 69 242 7.0 17.0 0.00 0.00 0.00 20 1002.6
20260505011550 69 187 5.0 15.0 0.00 0.00 0.00 20 1002.7
20260505011043 69 217 7.0 13.0 0.00 0.00 0.00 20 1002.7
20260505010540 70 232 4.0 12.0 0.00 0.00 0.00 21 1002.7
20260505010042 69 252 4.0 14.0 0.00 0.00 0.00 21 1002.9
20260505005539 70 229 6.0 10.0 0.00 0.00 0.00 21 1002.8
20260505005039 70 221 4.0 12.0 0.00 0.00 0.00 21 1002.8
20260505004540 70 216 5.0 16.0 0.00 0.00 0.00 21 1002.8
20260505004041 70 223 5.0 16.0 0.00 0.00 0.00 21 1002.8
20260505003540 70 223 5.0 12.0 0.00 0.00 0.00 21 1002.8
20260505003037 70 201 4.0 19.0 0.00 0.00 0.00 21 1002.8
20260505002537 70 209 6.0 17.0 0.00 0.00 0.00 21 1002.8
20260505002037 70 227 4.0 14.0 0.00 0.00 0.00 22 1002.8
20260505001537 70 236 5.0 13.0 0.00 0.00 0.00 22 1002.9
20260505001036 71 213 7.0 14.0 0.00 0.00 0.00 21 1002.9
20260505000540 71 245 6.0 15.0 0.00 0.00 0.00 21 1002.9
20260505000035 71 244 6.0 15.0 0.00 0.00 0.00 21 1002.9
20260504235535 71 192 8.0 18.0 0.00 0.00 0.00 22 1002.9
20260504235036 72 206 4.0 14.0 0.00 0.00 0.00 22 1002.8
20260504234535 72 261 6.0 14.0 0.00 0.00 0.00 22 1002.8
20260504234033 72 192 5.0 15.0 0.00 0.00 0.00 22 1002.8
20260504233537 72 232 6.0 12.0 0.00 0.00 0.00 22 1002.9
20260504233032 71 226 6.0 12.0 0.00 0.00 0.00 23 1002.9
20260504232532 71 235 4.0 11.0 0.00 0.00 0.00 23 1002.9
20260504232031 70 207 6.0 18.0 0.00 0.00 0.00 23 1003.1
20260504231531 70 207 6.0 18.0 0.00 0.00 0.00 23 1003.0
20260504231033 70 221 5.0 17.0 0.00 0.00 0.00 23 1003.0
20260504230531 71 241 6.0 16.0 0.00 0.00 0.00 22 1003.0
20260504230031 71 235 5.0 12.0 0.00 0.00 0.00 23 1003.2
20260504225531 71 174 4.0 12.0 0.00 0.00 0.00 22 1003.1